| time (UTC) | temp F | wind direction | speed knots | gust knots | rain 1hr in | rain 24hr in | rain mn in | humidity % | barometer mb |
| 20260505224011 | 94 | 205 | 3.5 | 3.5 | 0.00 | 0.00 | 0.00 | ||
| 20260505223511 | 94 | 243 | 6.1 | 7.8 | 0.00 | 0.00 | 0.00 | ||
| 20260505223008 | 93 | 252 | 5.2 | 7.8 | 0.00 | 0.00 | 0.00 | ||
| 20260505222509 | 94 | 231 | 7.0 | 6.1 | 0.00 | 0.00 | 0.00 | ||
| 20260505222009 | 93 | 235 | 7.0 | 5.2 | 0.00 | 0.00 | 0.00 | ||
| 20260505221505 | 93 | 221 | 6.1 | 5.2 | 0.00 | 0.00 | 0.00 | ||
| 20260505221005 | 92 | 246 | 7.0 | 7.0 | 0.00 | 0.00 | 0.00 | ||
| 20260505220505 | 94 | 214 | 7.0 | 3.5 | 0.00 | 0.00 | 0.00 | ||
| 20260505220003 | 94 | 232 | 5.2 | 7.0 | 0.00 | 0.00 | 0.00 | ||
| 20260505215503 | 92 | 242 | 7.8 | 6.1 | 0.00 | 0.00 | 0.00 | ||
| 20260505215003 | 94 | 242 | 6.1 | 5.2 | 0.00 | 0.00 | 0.00 | ||
| 20260505214501 | 94 | 222 | 3.5 | 4.3 | 0.00 | 0.00 | 0.00 | ||
| 20260505214001 | 92 | 203 | 4.3 | 3.5 | 0.00 | 0.00 | 0.00 | ||
| 20260505213501 | 93 | 257 | 7.0 | 6.1 | 0.00 | 0.00 | 0.00 | ||
| 20260505213409 | 93 | 221 | 7.8 | 8.7 | 0.00 | 0.00 | 0.00 | ||
| 20260505212958 | 93 | 221 | 7.8 | 8.7 | 0.00 | 0.00 | 0.00 | ||
| 20260505212458 | 94 | 252 | 7.8 | 7.0 | 0.00 | 0.00 | 0.00 | ||
| 20260505211958 | 94 | 242 | 7.8 | 9.6 | 0.00 | 0.00 | 0.00 | ||
| 20260505211456 | 94 | 285 | 7.0 | 5.2 | 0.00 | 0.00 | 0.00 | ||
| 20260505210956 | 93 | 269 | 5.2 | 3.5 | 0.00 | 0.00 | 0.00 | ||
| 20260505210456 | 94 | 277 | 8.7 | 8.7 | 0.00 | 0.00 | 0.00 | ||
| 20260505205954 | 95 | 295 | 7.0 | 7.0 | 0.00 | 0.00 | 0.00 | ||
| 20260505205454 | 94 | 284 | 8.7 | 7.8 | 0.00 | 0.00 | 0.00 | ||
| 20260505204954 | 94 | 215 | 7.8 | 8.7 | 0.00 | 0.00 | 0.00 | ||
| 20260505204452 | 95 | 269 | 9.6 | 7.0 | 0.00 | 0.00 | 0.00 | ||
| 20260505203952 | 96 | 293 | 6.1 | 7.8 | 0.00 | 0.00 | 0.00 | ||
| 20260505203452 | 95 | 239 | 3.5 | 7.8 | 0.00 | 0.00 | 0.00 | ||
| 20260505202950 | 95 | 281 | 4.3 | 9.6 | 0.00 | 0.00 | 0.00 | ||
| 20260505202450 | 94 | 257 | 5.2 | 6.1 | 0.00 | 0.00 | 0.00 | ||
| 20260505201950 | 95 | 264 | 5.2 | 9.6 | 0.00 | 0.00 | 0.00 | ||
| 20260505201447 | 94 | 300 | 5.2 | 4.3 | 0.00 | 0.00 | 0.00 | ||
| 20260505200948 | 94 | 252 | 5.2 | 8.7 | 0.00 | 0.00 | 0.00 | ||
| 20260505200448 | 93 | 238 | 7.0 | 8.7 | 0.00 | 0.00 | 0.00 | ||
| 20260505195946 | 94 | 264 | 7.0 | 7.0 | 0.00 | 0.00 | 0.00 | ||
| 20260505195446 | 95 | 246 | 4.3 | 5.2 | 0.00 | 0.00 | 0.00 | ||
| 20260505194946 | 94 | 253 | 6.1 | 7.0 | 0.00 | 0.00 | 0.00 | ||
| 20260505194442 | 94 | 238 | 7.8 | 6.1 | 0.00 | 0.00 | 0.00 | ||
| 20260505193942 | 95 | 233 | 6.1 | 6.1 | 0.00 | 0.00 | 0.00 | ||
| 20260505193442 | 94 | 288 | 6.1 | 3.5 | 0.00 | 0.00 | 0.00 | ||
| 20260505193313 | 93 | 260 | 6.1 | 6.1 | 0.00 | 0.00 | 0.00 | ||
| 20260505192940 | 93 | 273 | 5.2 | 1.7 | 0.00 | 0.00 | 0.00 | ||
| 20260505192440 | 93 | 260 | 6.1 | 6.1 | 0.00 | 0.00 | 0.00 | ||
| 20260505191940 | 93 | 270 | 6.1 | 6.1 | 0.00 | 0.00 | 0.00 | ||
| 20260505191438 | 93 | 242 | 4.3 | 7.0 | 0.00 | 0.00 | 0.00 | ||
| 20260505190938 | 93 | 260 | 6.1 | 6.1 | 0.00 | 0.00 | 0.00 | ||
| 20260505190438 | 93 | 255 | 8.7 | 5.2 | 0.00 | 0.00 | 0.00 | ||
| 20260505185936 | 93 | 284 | 5.2 | 10.4 | 0.00 | 0.00 | 0.00 | ||
| 20260505185436 | 93 | 263 | 4.3 | 8.7 | 0.00 | 0.00 | 0.00 | ||
| 20260505184936 | 92 | 250 | 7.8 | 7.0 | 0.00 | 0.00 | 0.00 | ||
| 20260505184434 | 91 | 246 | 7.8 | 7.8 | 0.00 | 0.00 | 0.00 | ||
| 20260505183934 | 91 | 232 | 7.0 | 3.5 | 0.00 | 0.00 | 0.00 | ||
| 20260505183434 | 92 | 284 | 7.8 | 7.0 | 0.00 | 0.00 | 0.00 | ||
| 20260505182932 | 91 | 264 | 6.1 | 5.2 | 0.00 | 0.00 | 0.00 | ||
| 20260505182432 | 90 | 290 | 7.8 | 4.3 | 0.00 | 0.00 | 0.00 | ||
| 20260505181933 | 91 | 270 | 8.7 | 6.1 | 0.00 | 0.00 | 0.00 | ||
| 20260505181430 | 91 | 253 | 7.8 | 5.2 | 0.00 | 0.00 | 0.00 | ||
| 20260505180930 | 91 | 242 | 7.0 | 7.0 | 0.00 | 0.00 | 0.00 | ||
| 20260505180431 | 90 | 239 | 6.1 | 7.0 | 0.00 | 0.00 | 0.00 | ||
| 20260505175928 | 91 | 249 | 7.8 | 7.0 | 0.00 | 0.00 | 0.00 | ||
| 20260505175429 | 91 | 285 | 9.6 | 7.0 | 0.00 | 0.00 | 0.00 | ||
| 20260505174929 | 91 | 271 | 5.2 | 4.3 | 0.00 | 0.00 | 0.00 | ||
| 20260505174426 | 90 | 224 | 6.1 | 8.7 | 0.00 | 0.00 | 0.00 | ||
| 20260505173926 | 90 | 248 | 8.7 | 6.1 | 0.00 | 0.00 | 0.00 | ||
| 20260505173427 | 90 | 281 | 6.1 | 7.0 | 0.00 | 0.00 | 0.00 | ||
| 20260505172924 | 90 | 243 | 6.1 | 5.2 | 0.00 | 0.00 | 0.00 | ||
| 20260505172425 | 90 | 245 | 2.6 | 2.6 | 0.00 | 0.00 | 0.00 | ||
| 20260505171925 | 89 | 203 | 5.2 | 6.1 | 0.00 | 0.00 | 0.00 | ||
| 20260505171422 | 89 | 165 | 4.3 | 3.5 | 0.00 | 0.00 | 0.00 | ||
| 20260505170923 | 88 | 191 | 5.2 | 3.5 | 0.00 | 0.00 | 0.00 | ||
| 20260505170423 | 87 | 232 | 5.2 | 4.3 | 0.00 | 0.00 | 0.00 | ||
| 20260505165920 | 87 | 253 | 4.3 | 4.3 | 0.00 | 0.00 | 0.00 | ||
| 20260505165534 | 85 | 236 | 7.0 | 6.1 | 0.00 | 0.00 | 0.00 | ||
| 20260505165421 | 85 | 236 | 7.0 | 6.1 | 0.00 | 0.00 | 0.00 | ||
| 20260505164921 | 84 | 211 | 7.0 | 5.2 | 0.00 | 0.00 | 0.00 | ||
| 20260505164519 | 84 | 203 | 8.7 | 8.7 | 0.00 | 0.00 | 0.00 | ||
| 20260505164419 | 84 | 203 | 8.7 | 8.7 | 0.00 | 0.00 | 0.00 | ||
| 20260505163919 | 83 | 222 | 7.0 | 9.6 | 0.00 | 0.00 | 0.00 | ||
| 20260505163420 | 83 | 232 | 10.4 | 7.8 | 0.00 | 0.00 | 0.00 | ||
| 20260505162917 | 83 | 205 | 6.1 | 10.4 | 0.00 | 0.00 | 0.00 | ||
| 20260505162417 | 82 | 197 | 7.8 | 5.2 | 0.00 | 0.00 | 0.00 | ||
| 20260505161918 | 82 | 197 | 7.0 | 7.0 | 0.00 | 0.00 | 0.00 | ||
| 20260505161415 | 80 | 225 | 9.6 | 8.7 | 0.00 | 0.00 | 0.00 | ||
| 20260505160915 | 80 | 194 | 9.6 | 8.7 | 0.00 | 0.00 | 0.00 | ||
| 20260505160415 | 80 | 218 | 9.6 | 7.8 | 0.00 | 0.00 | 0.00 | ||
| 20260505152908 | 79 | 198 | 7.8 | 7.0 | 0.00 | 0.00 | 0.00 | ||
| 20260505152408 | 79 | 180 | 6.1 | 5.2 | 0.00 | 0.00 | 0.00 | ||
| 20260505151909 | 79 | 198 | 5.2 | 7.8 | 0.00 | 0.00 | 0.00 | ||
| 20260505151406 | 78 | 195 | 7.0 | 7.0 | 0.00 | 0.00 | 0.00 | ||
| 20260505150407 | 77 | 172 | 7.0 | 7.0 | 0.00 | 0.00 | 0.00 | ||
| 20260505140358 | 73 | 193 | 8.7 | 12.2 | 0.00 | 0.00 | 0.00 | ||
| 20260505124847 | 69 | 225 | 6.1 | 6.1 | 0.00 | 0.00 | 0.00 | ||
| 20260505124421 | 69 | 191 | 6.1 | 7.8 | 0.00 | 0.00 | 0.00 | ||
| 20260505124345 | 69 | 191 | 6.1 | 7.8 | 0.00 | 0.00 | 0.00 | ||
| 20260505123845 | 68 | 191 | 7.0 | 11.3 | 0.00 | 0.00 | 0.00 | ||
| 20260505123346 | 68 | 203 | 7.8 | 7.8 | 0.00 | 0.00 | 0.00 | ||
| 20260505122843 | 68 | 210 | 7.0 | 5.2 | 0.00 | 0.00 | 0.00 | ||
| 20260505122344 | 68 | 197 | 7.0 | 7.8 | 0.00 | 0.00 | 0.00 | ||
| 20260505121844 | 68 | 200 | 9.6 | 9.6 | 0.00 | 0.00 | 0.00 | ||
| 20260505121340 | 68 | 208 | 9.6 | 7.0 | 0.00 | 0.00 | 0.00 | ||
| 20260505120923 | 68 | 188 | 10.4 | 13.0 | 0.00 | 0.00 | 0.00 | ||
| 20260505120840 | 68 | 188 | 10.4 | 13.0 | 0.00 | 0.00 | 0.00 | ||
| 20260505120341 | 67 | 204 | 9.6 | 8.7 | 0.00 | 0.00 | 0.00 | ||
| 20260505115847 | 68 | 188 | 9.6 | 7.8 | 0.00 | 0.00 | 0.00 | ||
| 20260505115838 | 68 | 188 | 9.6 | 7.8 | 0.00 | 0.00 | 0.00 | ||
| 20260505115434 | 68 | 183 | 10.4 | 7.8 | 0.00 | 0.00 | 0.00 | ||
| 20260505115339 | 68 | 183 | 10.4 | 7.8 | 0.00 | 0.00 | 0.00 | ||
| 20260505114839 | 67 | 224 | 8.7 | 11.3 | 0.00 | 0.00 | 0.00 | ||
| 20260505114336 | 67 | 188 | 8.7 | 8.7 | 0.00 | 0.00 | 0.00 | ||
| 20260505113836 | 67 | 188 | 7.0 | 9.6 | 0.00 | 0.00 | 0.00 | ||
| 20260505113337 | 67 | 201 | 7.8 | 7.0 | 0.00 | 0.00 | 0.00 | ||
| 20260505112834 | 67 | 205 | 7.0 | 9.6 | 0.00 | 0.00 | 0.00 | ||
| 20260505112335 | 67 | 177 | 6.1 | 7.0 | 0.00 | 0.00 | 0.00 | ||
| 20260505111835 | 67 | 233 | 6.1 | 7.0 | 0.00 | 0.00 | 0.00 | ||
| 20260505111333 | 67 | 188 | 5.2 | 6.1 | 0.00 | 0.00 | 0.00 | ||
| 20260505110833 | 68 | 245 | 5.2 | 6.1 | 0.00 | 0.00 | 0.00 | ||
| 20260505110408 | 68 | 194 | 7.0 | 7.8 | 0.00 | 0.00 | 0.00 | ||
| 20260505110333 | 68 | 194 | 7.0 | 7.8 | 0.00 | 0.00 | 0.00 | ||
| 20260505101828 | 69 | 194 | 7.8 | 7.0 | 0.00 | 0.00 | 0.00 | ||
| 20260505101414 | 69 | 191 | 6.1 | 7.8 | 0.00 | 0.00 | 0.00 | ||
| 20260505101325 | 69 | 191 | 6.1 | 7.8 | 0.00 | 0.00 | 0.00 | ||
| 20260505100826 | 69 | 170 | 7.8 | 7.8 | 0.00 | 0.00 | 0.00 | ||
| 20260505100326 | 69 | 172 | 7.8 | 6.1 | 0.00 | 0.00 | 0.00 | ||
| 20260505095824 | 69 | 191 | 8.7 | 7.8 | 0.00 | 0.00 | 0.00 | ||
| 20260505095324 | 69 | 194 | 8.7 | 9.6 | 0.00 | 0.00 | 0.00 | ||
| 20260505094825 | 69 | 203 | 7.8 | 8.7 | 0.00 | 0.00 | 0.00 | ||
| 20260505094401 | 69 | 187 | 9.6 | 10.4 | 0.00 | 0.00 | 0.00 | ||
| 20260505094323 | 69 | 187 | 9.6 | 10.4 | 0.00 | 0.00 | 0.00 | ||
| 20260505093324 | 69 | 195 | 7.8 | 7.0 | 0.00 | 0.00 | 0.00 | ||
| 20260505092821 | 69 | 176 | 7.0 | 7.8 | 0.00 | 0.00 | 0.00 | ||
| 20260505092322 | 69 | 184 | 8.7 | 8.7 | 0.00 | 0.00 | 0.00 | ||
| 20260505091822 | 70 | 204 | 8.7 | 7.0 | 0.00 | 0.00 | 0.00 | ||
| 20260505091319 | 69 | 205 | 7.8 | 5.2 | 0.00 | 0.00 | 0.00 | ||
| 20260505090820 | 70 | 197 | 9.6 | 11.3 | 0.00 | 0.00 | 0.00 | ||
| 20260505090320 | 69 | 194 | 7.8 | 9.6 | 0.00 | 0.00 | 0.00 | ||
| 20260505085817 | 69 | 198 | 7.8 | 7.8 | 0.00 | 0.00 | 0.00 | ||
| 20260505085318 | 69 | 201 | 10.4 | 7.0 | 0.00 | 0.00 | 0.00 | ||
| 20260505084818 | 69 | 219 | 7.0 | 7.0 | 0.00 | 0.00 | 0.00 | ||
| 20260505084316 | 70 | 205 | 7.0 | 6.1 | 0.00 | 0.00 | 0.00 | ||
| 20260505083816 | 70 | 176 | 10.4 | 10.4 | 0.00 | 0.00 | 0.00 | ||
| 20260505083317 | 70 | 211 | 9.6 | 8.7 | 0.00 | 0.00 | 0.00 | ||
| 20260505082814 | 70 | 207 | 7.8 | 8.7 | 0.00 | 0.00 | 0.00 | ||
| 20260505082350 | 70 | 194 | 7.8 | 8.7 | 0.00 | 0.00 | 0.00 | ||
| 20260505082316 | 70 | 194 | 7.8 | 8.7 | 0.00 | 0.00 | 0.00 | ||
| 20260505081857 | 70 | 170 | 8.7 | 7.8 | 0.00 | 0.00 | 0.00 | ||
| 20260505081815 | 70 | 170 | 8.7 | 7.8 | 0.00 | 0.00 | 0.00 | ||
| 20260505081313 | 70 | 173 | 10.4 | 10.4 | 0.00 | 0.00 | 0.00 | ||
| 20260505080813 | 70 | 207 | 8.7 | 5.2 | 0.00 | 0.00 | 0.00 | ||
| 20260505080314 | 70 | 198 | 11.3 | 8.7 | 0.00 | 0.00 | 0.00 | ||
| 20260505075811 | 70 | 207 | 8.7 | 8.7 | 0.00 | 0.00 | 0.00 | ||
| 20260505075312 | 70 | 186 | 10.4 | 10.4 | 0.00 | 0.00 | 0.00 | ||
| 20260505074812 | 70 | 193 | 8.7 | 11.3 | 0.00 | 0.00 | 0.00 | ||
| 20260505074310 | 70 | 204 | 9.6 | 14.8 | 0.00 | 0.00 | 0.00 | ||
| 20260505073810 | 71 | 170 | 11.3 | 7.8 | 0.00 | 0.00 | 0.00 | ||
| 20260505073311 | 71 | 183 | 13.9 | 12.2 | 0.00 | 0.00 | 0.00 | ||
| 20260505072808 | 71 | 183 | 11.3 | 12.2 | 0.00 | 0.00 | 0.00 | ||
| 20260505072309 | 71 | 195 | 12.2 | 10.4 | 0.00 | 0.00 | 0.00 | ||
| 20260505071809 | 71 | 158 | 13.0 | 9.6 | 0.00 | 0.00 | 0.00 | ||
| 20260505071307 | 71 | 184 | 10.4 | 9.6 | 0.00 | 0.00 | 0.00 | ||
| 20260505070807 | 71 | 193 | 8.7 | 10.4 | 0.00 | 0.00 | 0.00 | ||
| 20260505070307 | 71 | 176 | 10.4 | 11.3 | 0.00 | 0.00 | 0.00 | ||
| 20260505065805 | 71 | 193 | 11.3 | 11.3 | 0.00 | 0.00 | 0.00 | ||
| 20260505065305 | 71 | 177 | 8.7 | 6.1 | 0.00 | 0.00 | 0.00 | ||
| 20260505064806 | 71 | 184 | 11.3 | 12.2 | 0.00 | 0.00 | 0.00 | ||
| 20260505064303 | 71 | 203 | 9.6 | 7.0 | 0.00 | 0.00 | 0.00 | ||
| 20260505063804 | 71 | 204 | 9.6 | 7.8 | 0.00 | 0.00 | 0.00 | ||
| 20260505063304 | 71 | 167 | 9.6 | 9.6 | 0.00 | 0.00 | 0.00 | ||
| 20260505062801 | 71 | 169 | 11.3 | 9.6 | 0.00 | 0.00 | 0.00 | ||
| 20260505062301 | 72 | 169 | 11.3 | 12.2 | 0.00 | 0.00 | 0.00 | ||
| 20260505061801 | 72 | 190 | 9.6 | 8.7 | 0.00 | 0.00 | 0.00 | ||
| 20260505061259 | 72 | 163 | 9.6 | 9.6 | 0.00 | 0.00 | 0.00 | ||
| 20260505060759 | 72 | 177 | 10.4 | 9.6 | 0.00 | 0.00 | 0.00 | ||
| 20260505060300 | 72 | 166 | 9.6 | 10.4 | 0.00 | 0.00 | 0.00 | ||
| 20260505055757 | 72 | 188 | 10.4 | 15.6 | 0.00 | 0.00 | 0.00 | ||
| 20260505055258 | 72 | 141 | 9.6 | 12.2 | 0.00 | 0.00 | 0.00 | ||
| 20260505054758 | 73 | 176 | 12.2 | 10.4 | 0.00 | 0.00 | 0.00 | ||
| 20260505054256 | 73 | 163 | 10.4 | 10.4 | 0.00 | 0.00 | 0.00 | ||
| 20260505053756 | 73 | 170 | 14.8 | 9.6 | 0.00 | 0.00 | 0.00 | ||
| 20260505053257 | 73 | 188 | 10.4 | 13.0 | 0.00 | 0.00 | 0.00 | ||
| 20260505052754 | 73 | 167 | 8.7 | 11.3 | 0.00 | 0.00 | 0.00 | ||
| 20260505052255 | 73 | 193 | 12.2 | 16.5 | 0.00 | 0.00 | 0.00 | ||
| 20260505051755 | 73 | 177 | 11.3 | 13.0 | 0.00 | 0.00 | 0.00 | ||
| 20260505051253 | 73 | 153 | 13.9 | 10.4 | 0.00 | 0.00 | 0.00 | ||
| 20260505050753 | 73 | 166 | 10.4 | 10.4 | 0.00 | 0.00 | 0.00 | ||
| 20260505050255 | 73 | 180 | 11.3 | 9.6 | 0.00 | 0.00 | 0.00 | ||
| 20260505041748 | 75 | 173 | 11.3 | 10.4 | 0.00 | 0.00 | 0.00 | ||
| 20260505041246 | 75 | 194 | 9.6 | 10.4 | 0.00 | 0.00 | 0.00 | ||
| 20260505040746 | 75 | 162 | 12.2 | 11.3 | 0.00 | 0.00 | 0.00 | ||
| 20260505040246 | 75 | 124 | 9.6 | 11.3 | 0.00 | 0.00 | 0.00 | ||
| 20260505035846 | 75 | 193 | 10.4 | 8.7 | 0.00 | 0.00 | 0.00 | ||
| 20260505035744 | 75 | 193 | 10.4 | 8.7 | 0.00 | 0.00 | 0.00 | ||
| 20260505035359 | 75 | 170 | 9.6 | 12.2 | 0.00 | 0.00 | 0.00 | ||
| 20260505035244 | 75 | 170 | 9.6 | 12.2 | 0.00 | 0.00 | 0.00 | ||
| 20260505034745 | 76 | 165 | 9.6 | 8.7 | 0.00 | 0.00 | 0.00 | ||
| 20260505034242 | 75 | 210 | 9.6 | 12.2 | 0.00 | 0.00 | 0.00 | ||
| 20260505034002 | 76 | 149 | 10.4 | 8.7 | 0.00 | 0.00 | 0.00 | ||
| 20260505033743 | 76 | 149 | 10.4 | 8.7 | 0.00 | 0.00 | 0.00 | ||
| 20260505033243 | 76 | 162 | 9.6 | 13.0 | 0.00 | 0.00 | 0.00 | ||
| 20260505032741 | 76 | 186 | 10.4 | 12.2 | 0.00 | 0.00 | 0.00 | ||
| 20260505032241 | 76 | 160 | 10.4 | 9.6 | 0.00 | 0.00 | 0.00 | ||
| 20260505031742 | 76 | 184 | 9.6 | 6.1 | 0.00 | 0.00 | 0.00 | ||
| 20260505031239 | 76 | 172 | 10.4 | 8.7 | 0.00 | 0.00 | 0.00 | ||
| 20260505030740 | 77 | 158 | 9.6 | 11.3 | 0.00 | 0.00 | 0.00 | ||
| 20260505030240 | 77 | 193 | 7.8 | 7.8 | 0.00 | 0.00 | 0.00 | ||
| 20260505025738 | 77 | 146 | 7.0 | 7.0 | 0.00 | 0.00 | 0.00 | ||
| 20260505025238 | 77 | 191 | 8.7 | 7.0 | 0.00 | 0.00 | 0.00 | ||
| 20260505024739 | 77 | 184 | 11.3 | 9.6 | 0.00 | 0.00 | 0.00 | ||
| 20260505024236 | 77 | 174 | 7.8 | 7.0 | 0.00 | 0.00 | 0.00 | ||
| 20260505023737 | 77 | 190 | 8.7 | 7.0 | 0.00 | 0.00 | 0.00 | ||
| 20260505023237 | 78 | 167 | 8.7 | 10.4 | 0.00 | 0.00 | 0.00 | ||
| 20260505022734 | 78 | 190 | 7.8 | 6.1 | 0.00 | 0.00 | 0.00 | ||
| 20260505022235 | 78 | 176 | 8.7 | 12.2 | 0.00 | 0.00 | 0.00 | ||
| 20260505021735 | 78 | 148 | 12.2 | 10.4 | 0.00 | 0.00 | 0.00 | ||
| 20260505021233 | 79 | 173 | 8.7 | 9.6 | 0.00 | 0.00 | 0.00 | ||
| 20260505020733 | 79 | 155 | 8.7 | 9.6 | 0.00 | 0.00 | 0.00 | ||
| 20260505020234 | 79 | 162 | 10.4 | 9.6 | 0.00 | 0.00 | 0.00 | ||
| 20260505015731 | 79 | 174 | 7.8 | 13.0 | 0.00 | 0.00 | 0.00 | ||
| 20260505015232 | 79 | 158 | 7.0 | 7.8 | 0.00 | 0.00 | 0.00 | ||
| 20260505014732 | 80 | 172 | 8.7 | 7.8 | 0.00 | 0.00 | 0.00 | ||
| 20260505014230 | 80 | 177 | 8.7 | 11.3 | 0.00 | 0.00 | 0.00 | ||
| 20260505013730 | 80 | 177 | 7.0 | 6.1 | 0.00 | 0.00 | 0.00 | ||
| 20260505013231 | 80 | 169 | 7.0 | 6.1 | 0.00 | 0.00 | 0.00 | ||
| 20260505012728 | 80 | 143 | 7.8 | 10.4 | 0.00 | 0.00 | 0.00 | ||
| 20260505012229 | 81 | 172 | 8.7 | 8.7 | 0.00 | 0.00 | 0.00 | ||
| 20260505011729 | 82 | 197 | 8.7 | 7.8 | 0.00 | 0.00 | 0.00 | ||
| 20260505011227 | 82 | 184 | 7.8 | 7.0 | 0.00 | 0.00 | 0.00 | ||
| 20260505010227 | 83 | 186 | 8.7 | 6.1 | 0.00 | 0.00 | 0.00 | ||
| 20260505005226 | 83 | 212 | 10.4 | 8.7 | 0.00 | 0.00 | 0.00 | ||
| 20260505004726 | 83 | 187 | 9.6 | 10.4 | 0.00 | 0.00 | 0.00 | ||
| 20260505004224 | 84 | 183 | 10.4 | 12.2 | 0.00 | 0.00 | 0.00 | ||
| 20260505003724 | 84 | 190 | 11.3 | 12.2 | 0.00 | 0.00 | 0.00 | ||
| 20260505003225 | 84 | 201 | 7.0 | 7.8 | 0.00 | 0.00 | 0.00 | ||
| 20260505002722 | 84 | 162 | 7.8 | 11.3 | 0.00 | 0.00 | 0.00 | ||
| 20260505002223 | 85 | 188 | 8.7 | 12.2 | 0.00 | 0.00 | 0.00 | ||
| 20260505001723 | 85 | 208 | 7.8 | 9.6 | 0.00 | 0.00 | 0.00 | ||
| 20260505001221 | 85 | 173 | 8.7 | 9.6 | 0.00 | 0.00 | 0.00 | ||
| 20260505000721 | 85 | 207 | 8.7 | 9.6 | 0.00 | 0.00 | 0.00 | ||
| 20260505000221 | 86 | 198 | 9.6 | 7.8 | 0.00 | 0.00 | 0.00 | ||
| 20260504235219 | 87 | 204 | 10.4 | 9.6 | 0.00 | 0.00 | 0.00 | ||
| 20260504234720 | 87 | 215 | 8.7 | 5.2 | 0.00 | 0.00 | 0.00 | ||
| 20260504234217 | 87 | 180 | 10.4 | 8.7 | 0.00 | 0.00 | 0.00 | ||
| 20260504233718 | 88 | 208 | 7.8 | 9.6 | 0.00 | 0.00 | 0.00 | ||
| 20260504233218 | 88 | 158 | 13.0 | 13.9 | 0.00 | 0.00 | 0.00 | ||
| 20260504232716 | 88 | 179 | 10.4 | 13.9 | 0.00 | 0.00 | 0.00 | ||
| 20260504232216 | 88 | 203 | 13.9 | 13.9 | 0.00 | 0.00 | 0.00 | ||
| 20260504231716 | 88 | 152 | 7.8 | 7.0 | 0.00 | 0.00 | 0.00 | ||
| 20260504231214 | 88 | 208 | 11.3 | 7.8 | 0.00 | 0.00 | 0.00 | ||
| 20260504230714 | 89 | 180 | 11.3 | 7.8 | 0.00 | 0.00 | 0.00 | ||
| 20260504230214 | 89 | 184 | 11.3 | 15.6 | 0.00 | 0.00 | 0.00 | ||
| 20260504225712 | 89 | 173 | 12.2 | 13.9 | 0.00 | 0.00 | 0.00 | ||
| 20260504225212 | 90 | 174 | 13.0 | 10.4 | 0.00 | 0.00 | 0.00 | ||
| 20260504224712 | 90 | 193 | 12.2 | 12.2 | 0.00 | 0.00 | 0.00 |